RYR42PG LIME-LGZA

Flight info

Callsign RYR42PG
Flight time 1h 48m
Altitude 35000
Route LOGDI DCT EKDIR DCT LOMED DCT PES DCT RUTOM UM601 LASKO
Aircraft B738/M-SDE2E3FGHIRWXY/LB1

Departure

Time 2026-04-26 14:11
Airport Il Caravaggio International Airport (LIME)

Arrival

Time 2026-04-26 16:00
Airport Zakynthos International Airport Dionysios Solomos (LGZA)
Time Latitude Longitude Altitude Speed Heading
2026-04-26 13:45 45.66723 9.69589 786 ft 0 kts 195°
2026-04-26 14:03 45.66729 9.69591 786 ft 2 kts 195°
2026-04-26 14:04 45.66748 9.69598 786 ft 3 kts 195°
2026-04-26 14:04 45.66767 9.69605 786 ft 3 kts 195°
2026-04-26 14:04 45.66784 9.69612 786 ft 2 kts 194°
2026-04-26 14:04 45.66802 9.69615 786 ft 3 kts 162°
2026-04-26 14:05 45.66815 9.69602 786 ft 3 kts 115°
2026-04-26 14:05 45.66821 9.69580 786 ft 1 kts 105°
2026-04-26 14:05 45.66823 9.69572 786 ft 0 kts 105°
2026-04-26 14:07 45.66814 9.69617 786 ft 12 kts 105°
2026-04-26 14:07 45.66781 9.69790 786 ft 24 kts 104°
2026-04-26 14:08 45.66729 9.70071 786 ft 32 kts 105°
2026-04-26 14:08 45.66673 9.70376 786 ft 31 kts 104°
2026-04-26 14:08 45.66620 9.70659 786 ft 29 kts 105°
2026-04-26 14:08 45.66571 9.70927 786 ft 27 kts 104°
2026-04-26 14:09 45.66514 9.71174 786 ft 25 kts 113°
2026-04-26 14:09 45.66469 9.71413 786 ft 26 kts 107°
2026-04-26 14:09 45.66448 9.71670 786 ft 28 kts 78°
2026-04-26 14:09 45.66456 9.71949 786 ft 30 kts 103°
2026-04-26 14:10 45.66405 9.72241 786 ft 27 kts 104°
2026-04-26 14:10 45.66385 9.72436 786 ft 19 kts 54°
2026-04-26 14:10 45.66460 9.72425 786 ft 10 kts 301°
2026-04-26 14:10 45.66470 9.72386 786 ft 8 kts 286°
2026-04-26 14:11 45.66734 9.70957 786 ft 136 kts 285°
2026-04-26 14:11 45.67024 9.69407 836 ft 181 kts 284°
2026-04-26 14:11 45.67329 9.67643 1509 ft 183 kts 275°
2026-04-26 14:12 45.67004 9.65943 2197 ft 185 kts 229°
2026-04-26 14:12 45.66040 9.64734 2908 ft 187 kts 219°
2026-04-26 14:12 45.65042 9.63512 3616 ft 189 kts 222°
2026-04-26 14:12 45.64057 9.62223 4277 ft 193 kts 224°
2026-04-26 14:13 45.62126 9.59499 5731 ft 195 kts 225°
2026-04-26 14:13 45.61126 9.58092 6133 ft 211 kts 224°
2026-04-26 14:13 45.60031 9.56549 6288 ft 230 kts 225°
2026-04-26 14:14 45.58854 9.54879 6569 ft 243 kts 225°
2026-04-26 14:14 45.57638 9.53149 7069 ft 249 kts 225°
2026-04-26 14:14 45.56215 9.51766 7692 ft 251 kts 197°
2026-04-26 14:14 45.54474 9.51642 8404 ft 252 kts 168°
2026-04-26 14:15 45.52844 9.52437 9012 ft 255 kts 158°
2026-04-26 14:15 45.51197 9.53446 9623 ft 259 kts 157°
2026-04-26 14:15 45.49512 9.54498 10254 ft 262 kts 157°
2026-04-26 14:15 45.47831 9.55540 10854 ft 266 kts 157°
2026-04-26 14:16 45.46122 9.56591 11469 ft 268 kts 157°
2026-04-26 14:16 45.44403 9.57639 12064 ft 271 kts 157°
2026-04-26 14:16 45.42659 9.58695 12654 ft 274 kts 158°
2026-04-26 14:16 45.40891 9.59760 13243 ft 277 kts 158°
2026-04-26 14:17 45.39131 9.60818 13815 ft 280 kts 158°
2026-04-26 14:17 45.37325 9.61902 14372 ft 283 kts 158°
2026-04-26 14:17 45.35532 9.63157 14768 ft 295 kts 149°
2026-04-26 14:17 45.33745 9.64770 14908 ft 314 kts 147°
2026-04-26 14:18 45.31874 9.66561 15046 ft 331 kts 146°
2026-04-26 14:18 45.29913 9.68444 15174 ft 348 kts 146°
2026-04-26 14:18 45.27855 9.70401 15282 ft 364 kts 147°
2026-04-26 14:18 45.25696 9.72431 15383 ft 379 kts 147°
2026-04-26 14:19 45.23488 9.74488 15510 ft 390 kts 147°
2026-04-26 14:19 45.21177 9.76628 15590 ft 402 kts 147°
2026-04-26 14:19 45.18802 9.78817 15743 ft 410 kts 147°
2026-04-26 14:19 45.16398 9.81028 16105 ft 412 kts 147°
2026-04-26 14:20 45.13987 9.83243 16443 ft 414 kts 147°
2026-04-26 14:20 45.11547 9.85482 16680 ft 418 kts 147°
2026-04-26 14:20 45.09096 9.87730 17013 ft 419 kts 147°
2026-04-26 14:20 45.06650 9.89970 17388 ft 419 kts 147°
2026-04-26 14:21 45.04180 9.92231 17562 ft 424 kts 147°
2026-04-26 14:21 45.01699 9.94498 17873 ft 424 kts 147°
2026-04-26 14:21 44.99211 9.96751 18146 ft 426 kts 148°
2026-04-26 14:21 44.96663 9.98908 18392 ft 428 kts 150°
2026-04-26 14:22 44.94105 10.00989 18635 ft 429 kts 150°
2026-04-26 14:22 44.91502 10.03089 18773 ft 433 kts 150°
2026-04-26 14:22 44.88880 10.05213 18993 ft 434 kts 150°
2026-04-26 14:22 44.86253 10.07355 19243 ft 435 kts 150°
2026-04-26 14:23 44.83642 10.09494 19440 ft 436 kts 150°
2026-04-26 14:23 44.81016 10.11650 19622 ft 438 kts 150°
2026-04-26 14:23 44.78407 10.13792 19800 ft 439 kts 150°
2026-04-26 14:23 44.75768 10.15958 20002 ft 440 kts 150°
2026-04-26 14:24 44.73110 10.18134 20125 ft 442 kts 150°
2026-04-26 14:24 44.70449 10.20309 20350 ft 442 kts 150°
2026-04-26 14:24 44.67786 10.22486 20503 ft 443 kts 150°
2026-04-26 14:24 44.65104 10.24677 20580 ft 446 kts 150°
2026-04-26 14:25 44.62414 10.26873 20708 ft 448 kts 150°
2026-04-26 14:25 44.59715 10.29076 20893 ft 447 kts 150°
2026-04-26 14:25 44.57061 10.31241 21070 ft 447 kts 150°
2026-04-26 14:25 44.54360 10.33444 21139 ft 450 kts 150°
2026-04-26 14:26 44.51647 10.35654 21275 ft 450 kts 150°
2026-04-26 14:26 44.48932 10.37866 21368 ft 452 kts 150°
2026-04-26 14:26 44.46211 10.40081 21367 ft 456 kts 150°
2026-04-26 14:26 44.43473 10.42309 21584 ft 453 kts 150°
2026-04-26 14:27 44.40748 10.44525 21780 ft 452 kts 150°
2026-04-26 14:27 44.38025 10.46739 21896 ft 453 kts 150°
2026-04-26 14:27 44.35299 10.48954 21976 ft 454 kts 150°
2026-04-26 14:27 44.32563 10.51176 22040 ft 456 kts 150°
2026-04-26 14:28 44.29809 10.53412 22032 ft 459 kts 150°
2026-04-26 14:28 44.27042 10.55657 22157 ft 458 kts 150°
2026-04-26 14:28 44.24292 10.57887 22311 ft 457 kts 150°
2026-04-26 14:28 44.21525 10.60129 22326 ft 460 kts 150°
2026-04-26 14:29 44.18764 10.62366 22443 ft 459 kts 150°
2026-04-26 14:29 44.16098 10.64809 22546 ft 459 kts 142°
2026-04-26 14:29 44.13763 10.67847 22618 ft 460 kts 132°
2026-04-26 14:29 44.11790 10.71365 22642 ft 462 kts 124°
2026-04-26 14:30 44.10200 10.75248 22723 ft 463 kts 115°
2026-04-26 14:30 44.08962 10.79322 22834 ft 463 kts 112°
2026-04-26 14:30 44.07757 10.83484 22903 ft 463 kts 112°
2026-04-26 14:30 44.06544 10.87639 22949 ft 464 kts 112°
2026-04-26 14:31 44.05301 10.91796 23001 ft 465 kts 113°
2026-04-26 14:31 44.04044 10.95924 23063 ft 465 kts 113°
2026-04-26 14:31 44.02751 11.00053 23117 ft 465 kts 116°
2026-04-26 14:31 44.01153 11.03964 23158 ft 465 kts 123°
2026-04-26 14:32 43.99361 11.07721 23221 ft 466 kts 124°
2026-04-26 14:32 43.97541 11.11444 23265 ft 466 kts 124°
2026-04-26 14:32 43.95715 11.15167 23311 ft 467 kts 124°
2026-04-26 14:32 43.93894 11.18901 23358 ft 467 kts 124°
2026-04-26 14:33 43.92081 11.22644 23404 ft 467 kts 124°
2026-04-26 14:33 43.90271 11.26406 23448 ft 468 kts 124°
2026-04-26 14:33 43.88470 11.30162 23488 ft 468 kts 124°
2026-04-26 14:33 43.86693 11.33871 23527 ft 468 kts 124°
2026-04-26 14:34 43.84889 11.37639 23567 ft 469 kts 124°
2026-04-26 14:34 43.83083 11.41405 23607 ft 469 kts 124°
2026-04-26 14:34 43.81271 11.45178 23645 ft 469 kts 124°
2026-04-26 14:34 43.79458 11.48947 23676 ft 470 kts 124°
2026-04-26 14:35 43.77645 11.52712 23708 ft 470 kts 124°
2026-04-26 14:35 43.75827 11.56480 23739 ft 470 kts 124°
2026-04-26 14:35 43.74006 11.60249 23768 ft 470 kts 124°
2026-04-26 14:35 43.72184 11.64016 23794 ft 471 kts 124°
2026-04-26 14:36 43.70381 11.67738 23819 ft 471 kts 124°
2026-04-26 14:36 43.68559 11.71496 23845 ft 471 kts 124°
2026-04-26 14:36 43.66727 11.75267 23869 ft 471 kts 124°
2026-04-26 14:36 43.64889 11.79049 23896 ft 472 kts 124°
2026-04-26 14:37 43.63063 11.82800 23916 ft 472 kts 124°
2026-04-26 14:37 43.61285 11.86447 23936 ft 472 kts 124°
2026-04-26 14:37 43.60325 11.88413 23950 ft 472 kts 124°
2026-04-26 14:37 43.58487 11.92178 23978 ft 472 kts 124°
2026-04-26 14:38 43.56646 11.95943 23999 ft 472 kts 124°
2026-04-26 14:38 43.54809 11.99695 24019 ft 473 kts 124°
2026-04-26 14:38 43.52991 12.03403 24036 ft 473 kts 124°
2026-04-26 14:38 43.51743 12.05945 24050 ft 473 kts 124°
2026-04-26 14:39 43.49296 12.10924 24076 ft 473 kts 124°
2026-04-26 14:39 43.47449 12.14677 24095 ft 473 kts 124°
2026-04-26 14:39 43.45596 12.18438 24113 ft 473 kts 124°
2026-04-26 14:39 43.43745 12.22190 24131 ft 473 kts 124°
2026-04-26 14:40 43.41891 12.25942 24141 ft 474 kts 124°
2026-04-26 14:40 43.40036 12.29692 24161 ft 474 kts 124°
2026-04-26 14:40 43.38183 12.33434 24175 ft 474 kts 124°
2026-04-26 14:40 43.36329 12.37171 24187 ft 474 kts 124°
2026-04-26 14:41 43.34467 12.40922 24201 ft 474 kts 124°
2026-04-26 14:41 43.32605 12.44668 24215 ft 474 kts 124°
2026-04-26 14:41 43.30741 12.48411 24232 ft 474 kts 124°
2026-04-26 14:41 43.28877 12.52151 24245 ft 474 kts 124°
2026-04-26 14:42 43.27034 12.55843 24254 ft 474 kts 124°
2026-04-26 14:42 43.25167 12.59579 24264 ft 475 kts 124°
2026-04-26 14:42 43.23294 12.63324 24269 ft 475 kts 124°
2026-04-26 14:42 43.21426 12.67052 24277 ft 475 kts 124°
2026-04-26 14:43 43.19549 12.70794 24291 ft 475 kts 125°
2026-04-26 14:43 43.17673 12.74530 24301 ft 475 kts 125°
2026-04-26 14:43 43.15798 12.78258 24311 ft 475 kts 125°
2026-04-26 14:43 43.13922 12.81984 24320 ft 475 kts 125°
2026-04-26 14:44 43.12045 12.85706 24329 ft 475 kts 125°
2026-04-26 14:44 43.10189 12.89384 24336 ft 475 kts 125°
2026-04-26 14:44 43.08310 12.93101 24343 ft 475 kts 125°
2026-04-26 14:44 43.06426 12.96825 24354 ft 475 kts 125°
2026-04-26 14:45 43.04541 13.00546 24359 ft 475 kts 125°
2026-04-26 14:45 43.03904 13.01802 24359 ft 475 kts 125°
2026-04-26 14:45 43.00769 13.07976 24373 ft 476 kts 125°
2026-04-26 14:45 42.98878 13.11694 24378 ft 476 kts 125°
2026-04-26 14:46 42.96986 13.15409 24392 ft 476 kts 125°
2026-04-26 14:46 42.95099 13.19111 24414 ft 476 kts 125°
2026-04-26 14:46 42.93208 13.22815 24439 ft 475 kts 125°
2026-04-26 14:46 42.91953 13.25272 24458 ft 475 kts 125°
2026-04-26 14:47 42.90063 13.28967 24479 ft 475 kts 125°
2026-04-26 14:47 42.88170 13.32662 24493 ft 475 kts 125°
2026-04-26 14:47 42.86277 13.36354 24500 ft 475 kts 125°
2026-04-26 14:47 42.84383 13.40043 24504 ft 475 kts 125°
2026-04-26 14:48 42.82483 13.43738 24509 ft 475 kts 125°
2026-04-26 14:48 42.80582 13.47432 24519 ft 475 kts 125°
2026-04-26 14:48 42.78682 13.51118 24526 ft 476 kts 125°
2026-04-26 14:48 42.76783 13.54800 24532 ft 476 kts 125°
2026-04-26 14:49 42.74877 13.58488 24538 ft 476 kts 125°
2026-04-26 14:49 42.72968 13.62179 24543 ft 476 kts 125°
2026-04-26 14:49 42.71089 13.65807 24547 ft 476 kts 125°
2026-04-26 14:49 42.69180 13.69489 24555 ft 476 kts 125°
2026-04-26 14:50 42.67273 13.73163 24560 ft 476 kts 126°
2026-04-26 14:50 42.65363 13.76838 24564 ft 476 kts 126°
2026-04-26 14:50 42.63448 13.80517 24570 ft 476 kts 126°
2026-04-26 14:50 42.61534 13.84189 24575 ft 476 kts 126°
2026-04-26 14:51 42.59618 13.87863 24578 ft 476 kts 126°
2026-04-26 14:51 42.57703 13.91530 24581 ft 476 kts 126°
2026-04-26 14:51 42.55787 13.95193 24586 ft 476 kts 126°
2026-04-26 14:51 42.53869 13.98857 24592 ft 476 kts 126°
2026-04-26 14:52 42.51945 14.02526 24595 ft 476 kts 126°
2026-04-26 14:52 42.50027 14.06181 24630 ft 475 kts 126°
2026-04-26 14:52 42.48110 14.09832 24635 ft 476 kts 126°
2026-04-26 14:52 42.46189 14.13483 24642 ft 476 kts 126°
2026-04-26 14:53 42.44262 14.17134 24645 ft 476 kts 126°
2026-04-26 14:53 42.42168 14.20589 24641 ft 475 kts 134°
2026-04-26 14:53 42.39830 14.23758 24660 ft 475 kts 136°
2026-04-26 14:53 42.37454 14.26864 24662 ft 475 kts 136°
2026-04-26 14:54 42.35097 14.29919 24666 ft 475 kts 136°
2026-04-26 14:54 42.32712 14.33018 24676 ft 475 kts 136°
2026-04-26 14:54 42.30332 14.36133 24682 ft 475 kts 136°
2026-04-26 14:54 42.27962 14.39254 24689 ft 475 kts 136°
2026-04-26 14:55 42.25604 14.42372 24699 ft 475 kts 136°
2026-04-26 14:55 42.23247 14.45498 24704 ft 475 kts 136°
2026-04-26 14:55 42.20879 14.48638 24708 ft 475 kts 136°
2026-04-26 14:55 42.18522 14.51762 24713 ft 475 kts 136°
2026-04-26 14:56 42.16158 14.54892 24727 ft 475 kts 136°
2026-04-26 14:56 42.13828 14.57973 24728 ft 475 kts 136°
2026-04-26 14:56 42.11435 14.61132 24734 ft 475 kts 136°
2026-04-26 14:56 42.09093 14.64220 24739 ft 475 kts 136°
2026-04-26 14:57 42.06729 14.67333 24744 ft 475 kts 136°
2026-04-26 14:57 42.04362 14.70447 24747 ft 476 kts 136°
2026-04-26 14:57 42.01992 14.73562 24750 ft 476 kts 136°
2026-04-26 14:57 41.99633 14.76658 24761 ft 475 kts 136°
2026-04-26 14:58 41.97273 14.79749 25356 ft 461 kts 133°
2026-04-26 14:58 41.95022 14.82686 26640 ft 440 kts 131°
2026-04-26 14:58 41.92867 14.85499 27255 ft 438 kts 131°
2026-04-26 14:58 41.90662 14.88387 27305 ft 447 kts 131°
2026-04-26 14:59 41.88418 14.91328 27417 ft 454 kts 131°
2026-04-26 14:59 41.86141 14.94308 27565 ft 460 kts 131°
2026-04-26 14:59 41.83846 14.97302 27865 ft 461 kts 131°
2026-04-26 14:59 41.82315 14.99296 28025 ft 464 kts 131°
2026-04-26 15:00 41.79205 15.03340 28324 ft 468 kts 131°
2026-04-26 15:00 41.76852 15.06397 28472 ft 473 kts 131°
2026-04-26 15:00 41.74479 15.09474 28711 ft 475 kts 131°
2026-04-26 15:00 41.72103 15.12551 29028 ft 476 kts 131°
2026-04-26 15:01 41.69720 15.15633 29373 ft 476 kts 131°
2026-04-26 15:01 41.67340 15.18707 29789 ft 474 kts 131°
2026-04-26 15:01 41.64971 15.21764 30198 ft 472 kts 131°
2026-04-26 15:01 41.62606 15.24814 30548 ft 472 kts 131°
2026-04-26 15:02 41.60272 15.27823 30859 ft 472 kts 131°
2026-04-26 15:02 41.57914 15.30860 31191 ft 472 kts 131°
2026-04-26 15:02 41.55552 15.33898 31549 ft 470 kts 131°
2026-04-26 15:02 41.53197 15.36923 31910 ft 469 kts 131°
2026-04-26 15:03 41.50848 15.39938 32235 ft 469 kts 131°
2026-04-26 15:03 41.48493 15.42958 32533 ft 469 kts 131°
2026-04-26 15:03 41.46137 15.45976 32847 ft 468 kts 131°
2026-04-26 15:03 41.43795 15.48973 33180 ft 467 kts 131°
2026-04-26 15:04 41.41448 15.51972 33471 ft 466 kts 131°
2026-04-26 15:04 41.39111 15.54956 33752 ft 466 kts 131°
2026-04-26 15:04 41.36771 15.57940 34042 ft 465 kts 131°
2026-04-26 15:04 41.34430 15.60923 34326 ft 465 kts 131°
2026-04-26 15:05 41.32095 15.63895 34602 ft 464 kts 131°
2026-04-26 15:05 41.30550 15.65860 34753 ft 464 kts 131°
2026-04-26 15:05 41.27405 15.69859 34745 ft 469 kts 131°
2026-04-26 15:06 41.22686 15.75842 34742 ft 467 kts 131°
2026-04-26 15:06 41.18031 15.81727 34740 ft 463 kts 131°
2026-04-26 15:07 41.11036 15.90558 34750 ft 461 kts 131°
2026-04-26 15:07 41.06377 15.96425 34747 ft 461 kts 131°
2026-04-26 15:08 41.01717 16.02280 34749 ft 462 kts 131°
2026-04-26 15:08 40.97049 16.08134 34749 ft 463 kts 131°
2026-04-26 15:09 40.92357 16.14006 34747 ft 464 kts 131°
2026-04-26 15:09 40.87687 16.19835 34756 ft 465 kts 131°
2026-04-26 15:10 40.83724 16.24775 34750 ft 467 kts 131°
2026-04-26 15:10 40.78225 16.31615 34746 ft 467 kts 131°
2026-04-26 15:11 40.73488 16.37492 34743 ft 468 kts 131°
2026-04-26 15:11 40.68750 16.43359 34750 ft 468 kts 131°
2026-04-26 15:12 40.63995 16.49236 34742 ft 468 kts 132°
2026-04-26 15:12 40.59257 16.55079 34748 ft 467 kts 132°
2026-04-26 15:13 40.54542 16.60882 34748 ft 466 kts 132°
2026-04-26 15:13 40.49810 16.66695 34747 ft 465 kts 132°
2026-04-26 15:14 40.45075 16.72500 34749 ft 465 kts 132°
2026-04-26 15:14 40.40333 16.78301 34746 ft 464 kts 132°
2026-04-26 15:15 40.35608 16.84069 34748 ft 464 kts 132°
2026-04-26 15:15 40.30889 16.89819 34749 ft 463 kts 132°
2026-04-26 15:16 40.26191 16.95532 34746 ft 462 kts 132°
2026-04-26 15:16 40.21472 17.01259 34746 ft 462 kts 132°
2026-04-26 15:17 40.17551 17.06010 34747 ft 462 kts 132°
2026-04-26 15:17 40.12025 17.12691 34749 ft 462 kts 132°
2026-04-26 15:18 40.07300 17.18392 34747 ft 462 kts 132°
2026-04-26 15:18 40.02573 17.24084 34748 ft 463 kts 132°
2026-04-26 15:19 39.97825 17.29790 34749 ft 463 kts 132°
2026-04-26 15:19 39.93100 17.35457 34748 ft 464 kts 132°
2026-04-26 15:20 39.88344 17.41150 34750 ft 464 kts 132°
2026-04-26 15:20 39.83581 17.46838 34748 ft 465 kts 132°
2026-04-26 15:21 39.78807 17.52531 34747 ft 465 kts 132°
2026-04-26 15:21 39.74035 17.58208 34747 ft 465 kts 133°
2026-04-26 15:22 39.69252 17.63888 34747 ft 465 kts 133°
2026-04-26 15:22 39.64501 17.69519 34747 ft 465 kts 133°
2026-04-26 15:23 39.59687 17.75214 34747 ft 465 kts 133°
2026-04-26 15:23 39.54936 17.80824 34747 ft 465 kts 133°
2026-04-26 15:24 39.50151 17.86462 34747 ft 465 kts 133°
2026-04-26 15:24 39.45368 17.92086 34747 ft 465 kts 133°
2026-04-26 15:25 39.41383 17.96764 34747 ft 464 kts 133°
2026-04-26 15:25 39.35790 18.03317 34747 ft 464 kts 133°
2026-04-26 15:26 39.31028 18.08885 34747 ft 464 kts 133°
2026-04-26 15:26 39.26235 18.14478 34749 ft 464 kts 133°
2026-04-26 15:27 39.21447 18.20056 34747 ft 464 kts 133°
2026-04-26 15:27 39.16650 18.25631 34747 ft 464 kts 133°
2026-04-26 15:28 39.11850 18.31201 34747 ft 464 kts 133°
2026-04-26 15:28 39.07043 18.36768 34747 ft 464 kts 133°
2026-04-26 15:29 39.02265 18.42290 34747 ft 464 kts 133°
2026-04-26 15:30 38.93441 18.52463 34747 ft 464 kts 133°
2026-04-26 15:30 38.88617 18.58009 34747 ft 465 kts 133°
2026-04-26 15:31 38.81394 18.66294 34751 ft 465 kts 133°
2026-04-26 15:32 38.74985 18.73625 34750 ft 465 kts 133°
2026-04-26 15:32 38.69328 18.80081 34747 ft 465 kts 133°
2026-04-26 15:33 38.64490 18.85592 34747 ft 465 kts 133°
2026-04-26 15:33 38.59688 18.91053 34747 ft 465 kts 133°
2026-04-26 15:34 38.54865 18.96573 34747 ft 463 kts 130°
2026-04-26 15:34 38.51157 19.03063 34751 ft 450 kts 112°
2026-04-26 15:35 38.48955 19.10480 34750 ft 443 kts 103°
2026-04-26 15:35 38.47049 19.17986 34747 ft 444 kts 103°
2026-04-26 15:36 38.45120 19.25442 34424 ft 449 kts 104°
2026-04-26 15:36 38.44129 19.29224 33859 ft 449 kts 104°
2026-04-26 15:36 38.43130 19.33007 33187 ft 449 kts 104°
2026-04-26 15:37 38.42130 19.36780 32502 ft 449 kts 104°
2026-04-26 15:37 38.41127 19.40563 31790 ft 450 kts 104°
2026-04-26 15:37 38.40123 19.44347 31051 ft 451 kts 104°
2026-04-26 15:37 38.39117 19.48131 30288 ft 452 kts 104°
2026-04-26 15:38 38.38107 19.51929 29540 ft 452 kts 104°
2026-04-26 15:38 38.37098 19.55711 29009 ft 446 kts 104°
2026-04-26 15:38 38.36104 19.59429 28435 ft 442 kts 104°
2026-04-26 15:38 38.35118 19.63119 27878 ft 437 kts 104°
2026-04-26 15:39 38.34154 19.66727 27336 ft 432 kts 105°
2026-04-26 15:39 38.33190 19.70330 26795 ft 427 kts 105°
2026-04-26 15:39 38.32237 19.73882 26271 ft 421 kts 106°
2026-04-26 15:39 38.31614 19.76199 26026 ft 415 kts 106°
2026-04-26 15:40 38.30380 19.80765 25692 ft 400 kts 107°
2026-04-26 15:40 38.29481 19.84086 25228 ft 395 kts 107°
2026-04-26 15:40 38.28594 19.87367 24738 ft 390 kts 108°
2026-04-26 15:40 38.27713 19.90625 24214 ft 387 kts 108°
2026-04-26 15:41 38.26841 19.93842 23717 ft 383 kts 109°
2026-04-26 15:41 38.25973 19.97022 23243 ft 379 kts 111°
2026-04-26 15:41 38.24669 19.99826 22964 ft 371 kts 134°
2026-04-26 15:41 38.22481 20.01623 22743 ft 387 kts 158°
2026-04-26 15:42 38.19774 20.02109 22403 ft 400 kts 181°
2026-04-26 15:42 38.17080 20.01156 21843 ft 407 kts 202°
2026-04-26 15:42 38.14525 19.99719 21471 ft 394 kts 191°
2026-04-26 15:42 38.11866 19.99437 21034 ft 381 kts 173°
2026-04-26 15:43 38.09258 19.99816 20560 ft 375 kts 172°
2026-04-26 15:43 38.06653 20.00093 19984 ft 374 kts 176°
2026-04-26 15:43 38.01492 20.00194 19158 ft 362 kts 180°
2026-04-26 15:44 37.99020 20.00191 19055 ft 348 kts 178°
2026-04-26 15:44 37.94782 20.02392 19048 ft 324 kts 143°
2026-04-26 15:44 37.93238 20.04407 19029 ft 316 kts 130°
2026-04-26 15:45 37.91325 20.09214 19034 ft 296 kts 117°
2026-04-26 15:45 37.90554 20.11577 19024 ft 284 kts 117°
2026-04-26 15:46 37.89111 20.16007 18873 ft 263 kts 118°
2026-04-26 15:46 37.88411 20.18123 18514 ft 260 kts 118°
2026-04-26 15:46 37.87715 20.20207 18065 ft 261 kts 119°
2026-04-26 15:46 37.87232 20.21647 17749 ft 262 kts 119°
2026-04-26 15:47 37.86277 20.24482 17097 ft 267 kts 119°
2026-04-26 15:47 37.85009 20.28238 16116 ft 277 kts 118°
2026-04-26 15:47 37.84256 20.30453 15102 ft 299 kts 117°
2026-04-26 15:48 37.83396 20.32983 13951 ft 324 kts 116°
2026-04-26 15:48 37.82480 20.35690 12808 ft 343 kts 114°
2026-04-26 15:48 37.81523 20.38523 11760 ft 356 kts 113°
2026-04-26 15:48 37.80551 20.41401 11157 ft 352 kts 112°
2026-04-26 15:49 37.79613 20.44175 10981 ft 334 kts 112°
2026-04-26 15:49 37.78718 20.46812 10833 ft 318 kts 112°
2026-04-26 15:49 37.77871 20.49304 10561 ft 308 kts 112°
2026-04-26 15:49 37.77038 20.51756 10262 ft 300 kts 112°
2026-04-26 15:50 37.76222 20.54152 9942 ft 292 kts 114°
2026-04-26 15:50 37.75441 20.56446 9699 ft 282 kts 114°
2026-04-26 15:50 37.74668 20.58708 9176 ft 283 kts 112°
2026-04-26 15:50 37.74137 20.61085 8745 ft 279 kts 94°
2026-04-26 15:51 37.73814 20.63497 8158 ft 280 kts 117°
2026-04-26 15:51 37.72564 20.65263 7867 ft 269 kts 150°
2026-04-26 15:51 37.70898 20.66260 7591 ft 261 kts 156°
2026-04-26 15:51 37.69282 20.67249 7300 ft 255 kts 153°
2026-04-26 15:52 37.67741 20.68308 7031 ft 249 kts 151°
2026-04-26 15:52 37.66252 20.69418 6765 ft 250 kts 149°
2026-04-26 15:52 37.64737 20.70609 6411 ft 263 kts 148°
2026-04-26 15:52 37.63711 20.71442 6171 ft 266 kts 147°
2026-04-26 15:53 37.61652 20.73159 5674 ft 270 kts 147°
2026-04-26 15:53 37.60085 20.74484 5309 ft 272 kts 147°
2026-04-26 15:53 37.58505 20.75824 4937 ft 275 kts 147°
2026-04-26 15:53 37.56932 20.77203 4556 ft 277 kts 140°
2026-04-26 15:54 37.55811 20.79172 4188 ft 279 kts 115°
2026-04-26 15:54 37.55145 20.81447 3922 ft 276 kts 105°
2026-04-26 15:54 37.54739 20.83803 3634 ft 274 kts 99°
2026-04-26 15:54 37.54527 20.86182 3363 ft 273 kts 94°
2026-04-26 15:55 37.54469 20.88540 3084 ft 265 kts 89°
2026-04-26 15:55 37.54561 20.90797 2961 ft 250 kts 84°
2026-04-26 15:55 37.54830 20.92879 2926 ft 231 kts 69°
2026-04-26 15:55 37.55756 20.94363 2938 ft 209 kts 26°
2026-04-26 15:56 37.57111 20.94624 2974 ft 197 kts 347°
2026-04-26 15:56 37.58432 20.94198 2968 ft 196 kts 344°
2026-04-26 15:56 37.59760 20.93759 2920 ft 200 kts 343°
2026-04-26 15:56 37.61113 20.93292 2675 ft 199 kts 343°
2026-04-26 15:57 37.62410 20.92841 2408 ft 186 kts 343°
2026-04-26 15:57 37.63597 20.92429 2173 ft 169 kts 343°
2026-04-26 15:57 37.64685 20.92053 1938 ft 156 kts 343°
2026-04-26 15:57 37.65370 20.91815 1825 ft 153 kts 343°
2026-04-26 15:58 37.66730 20.91343 1555 ft 154 kts 343°
2026-04-26 15:58 37.67774 20.91009 1314 ft 156 kts 345°
2026-04-26 15:58 37.68831 20.90711 1088 ft 155 kts 345°
2026-04-26 15:58 37.69870 20.90388 889 ft 153 kts 344°
2026-04-26 15:59 37.70897 20.90052 678 ft 152 kts 342°
2026-04-26 15:59 37.71891 20.89640 501 ft 151 kts 341°
2026-04-26 15:59 37.72567 20.89358 361 ft 151 kts 341°
2026-04-26 15:59 37.73562 20.88989 205 ft 148 kts 343°
2026-04-26 16:00 37.74555 20.88625 27 ft 148 kts 342°
2026-04-26 16:00 37.75432 20.88299 20 ft 110 kts 344°
2026-04-26 16:00 37.75847 20.88158 21 ft 13 kts 22°
2026-04-26 16:00 37.75883 20.88118 21 ft 7 kts 227°
2026-04-26 16:01 37.75838 20.88137 24 ft 7 kts 150°
2026-04-26 16:01 37.75790 20.88159 22 ft 8 kts 160°
2026-04-26 16:01 37.75709 20.88195 22 ft 17 kts 160°
2026-04-26 16:01 37.75573 20.88247 20 ft 22 kts 164°
2026-04-26 16:02 37.75480 20.88338 20 ft 18 kts 111°
2026-04-26 16:02 37.75450 20.88406 20 ft 8 kts 146°
2026-04-26 16:02 37.75410 20.88426 21 ft 2 kts 162°
2026-04-26 16:02 37.75399 20.88431 19 ft 2 kts 162°
2026-04-26 16:03 37.75393 20.88453 19 ft 3 kts 71°
2026-04-26 16:03 37.75398 20.88475 19 ft 2 kts 74°
2026-04-26 16:03 37.75402 20.88495 21 ft 2 kts 73°
2026-04-26 16:03 37.75407 20.88514 19 ft 2 kts 73°
2026-04-26 16:04 37.75408 20.88521 19 ft 0 kts 73°